TimeCST,TemperatureF,Dew PointF,Humidity,Sea Level PressureIn,VisibilityMPH,Wind Direction,Wind SpeedMPH,Gust SpeedMPH,PrecipitationIn,Events,Conditions,WindDirDegrees,DateUTC
12:35 AM,-0.4,-4.0,85,30.12,1.0,NNW,24.2,32.2,N/A,,Overcast,340,2013-02-19 06:35:00
12:55 AM,-2.2,-4.0,92,30.13,0.8,North,28.8,32.2,N/A,,Overcast,350,2013-02-19 06:55:00
1:15 AM,-2.2,-5.8,85,30.14,0.8,North,25.3,32.2,N/A,,Overcast,350,2013-02-19 07:15:00
1:34 AM,-2.2,-5.8,85,30.14,0.8,NNW,32.2,35.7,N/A,Snow,Light Snow,340,2013-02-19 07:34:00
1:55 AM,-4.0,-5.8,92,30.15,0.8,North,28.8,35.7,N/A,Snow,Light Snow,350,2013-02-19 07:55:00
2:15 AM,-4.0,-7.6,85,30.16,0.8,North,26.5,-,N/A,,Overcast,350,2013-02-19 08:15:00
2:34 AM,-5.8,-7.6,92,30.17,0.5,North,25.3,34.5,N/A,Snow,Light Snow,350,2013-02-19 08:34:00
2:55 AM,-5.8,-9.4,84,30.17,1.0,NNW,26.5,31.1,N/A,,Overcast,340,2013-02-19 08:55:00
3:15 AM,-5.8,-9.4,84,30.17,0.8,North,29.9,33.4,N/A,,Overcast,350,2013-02-19 09:15:00
3:34 AM,-5.8,-9.4,84,30.18,0.8,NNW,26.5,31.1,N/A,,Overcast,340,2013-02-19 09:34:00
3:55 AM,-7.6,-9.4,92,30.19,1.0,North,27.6,-,N/A,,Overcast,350,2013-02-19 09:55:00
4:15 AM,-7.6,-9.4,92,30.19,1.5,NNW,24.2,-,N/A,,Overcast,340,2013-02-19 10:15:00
4:34 AM,-7.6,-9.4,92,30.19,1.2,North,27.6,32.2,N/A,,Overcast,350,2013-02-19 10:34:00
4:55 AM,-7.6,-11.2,84,30.20,0.8,North,27.6,33.4,N/A,Snow,Light Snow,350,2013-02-19 10:55:00
6:14 AM,-9.4,-11.2,92,30.23,1.0,North,23.0,-,N/A,Snow,Light Snow,350,2013-02-19 12:14:00
6:35 AM,-9.4,-11.2,92,30.24,1.0,North,24.2,29.9,N/A,Snow,Light Snow,350,2013-02-19 12:35:00
6:55 AM,-9.4,-11.2,92,30.25,1.2,NNW,26.5,-,N/A,,Overcast,340,2013-02-19 12:55:00
7:14 AM,-9.4,-13.0,84,30.26,1.0,North,24.2,-,N/A,Snow,Light Snow,350,2013-02-19 13:14:00
7:35 AM,-9.4,-13.0,84,30.28,0.8,North,23.0,26.5,N/A,,Overcast,350,2013-02-19 13:35:00
7:55 AM,-9.4,-13.0,84,30.29,0.5,North,20.7,-,N/A,Snow,Light Snow,350,2013-02-19 13:55:00
8:14 AM,-9.4,-13.0,84,30.29,0.8,North,20.7,-,N/A,,Overcast,350,2013-02-19 14:14:00
8:35 AM,-9.4,-13.0,84,30.30,1.0,NNW,18.4,25.3,N/A,,Overcast,340,2013-02-19 14:35:00
8:54 AM,-9.4,-13.0,84,30.31,0.8,North,20.7,-,N/A,,Overcast,350,2013-02-19 14:54:00
9:15 AM,-9.4,-13.0,84,30.32,0.8,North,18.4,-,N/A,,Overcast,350,2013-02-19 15:15:00
9:35 AM,-9.4,-13.0,84,30.32,0.8,North,21.9,28.8,N/A,,Overcast,350,2013-02-19 15:35:00
9:54 AM,-9.4,-13.0,84,30.32,0.8,North,25.3,-,N/A,,Overcast,360,2013-02-19 15:54:00
10:15 AM,-9.4,-13.0,84,30.34,0.8,North,20.7,-,N/A,,Overcast,350,2013-02-19 16:15:00
10:35 AM,-9.4,-13.0,84,30.36,0.8,North,24.2,29.9,N/A,,Overcast,360,2013-02-19 16:35:00
10:54 AM,-7.6,-11.2,84,30.36,1.0,North,24.2,-,N/A,,Overcast,350,2013-02-19 16:54:00
11:15 AM,-7.6,-11.2,84,30.37,0.8,North,18.4,-,N/A,,Overcast,350,2013-02-19 17:15:00
11:35 AM,-7.6,-11.2,84,30.37,0.8,NNW,21.9,-,N/A,,Overcast,340,2013-02-19 17:35:00
11:54 AM,-7.6,-11.2,84,30.37,0.8,North,21.9,26.5,N/A,,Overcast,360,2013-02-19 17:54:00
12:15 PM,-7.6,-11.2,84,30.37,1.0,North,20.7,26.5,N/A,,Haze,10,2013-02-19 18:15:00
12:34 PM,-7.6,-11.2,84,30.37,1.5,North,21.9,-,N/A,,Haze,360,2013-02-19 18:34:00
12:55 PM,-7.6,-11.2,84,30.37,1.8,North,20.7,-,N/A,,Overcast,350,2013-02-19 18:55:00
1:14 PM,-5.8,-9.4,84,30.37,2.0,North,18.4,-,N/A,,Overcast,360,2013-02-19 19:14:00
1:35 PM,-5.8,-11.2,77,30.37,4.0,North,17.3,-,N/A,,Haze,360,2013-02-19 19:35:00
1:55 PM,-5.8,-11.2,77,30.37,5.0,North,17.3,-,N/A,,Haze,360,2013-02-19 19:55:00
2:14 PM,-5.8,-11.2,77,30.37,7.0,North,17.3,-,N/A,,Mostly Cloudy,10,2013-02-19 20:14:00
2:35 PM,-5.8,-9.4,84,30.37,7.0,North,16.1,-,N/A,,Mostly Cloudy,360,2013-02-19 20:35:00
2:55 PM,-5.8,-9.4,84,30.38,4.0,North,16.1,-,N/A,,Overcast,10,2013-02-19 20:55:00
3:14 PM,-5.8,-9.4,84,30.39,3.0,North,17.3,-,N/A,,Overcast,360,2013-02-19 21:14:00
3:35 PM,-5.8,-9.4,84,30.40,3.0,North,16.1,-,N/A,,Overcast,350,2013-02-19 21:35:00
3:55 PM,-4.0,-9.4,78,30.40,4.0,North,16.1,-,N/A,,Haze,360,2013-02-19 21:55:00
4:14 PM,-4.0,-9.4,78,30.41,7.0,North,15.0,-,N/A,,Overcast,360,2013-02-19 22:14:00
4:35 PM,-5.8,-9.4,84,30.41,10.0,North,12.7,-,N/A,,Scattered Clouds,360,2013-02-19 22:35:00
4:54 PM,-5.8,-9.4,84,30.42,10.0,North,12.7,-,N/A,,Scattered Clouds,10,2013-02-19 22:54:00
5:15 PM,-5.8,-9.4,84,30.42,10.0,North,12.7,-,N/A,,Scattered Clouds,360,2013-02-19 23:15:00
5:35 PM,-5.8,-9.4,84,30.41,10.0,North,11.5,-,N/A,,Scattered Clouds,10,2013-02-19 23:35:00
6:35 PM,-7.6,-11.2,84,30.42,10.0,NNE,10.4,-,N/A,,Clear,20,2013-02-20 00:35:00
6:54 PM,-7.6,-11.2,84,30.43,10.0,North,11.5,-,N/A,,Clear,10,2013-02-20 00:54:00
7:15 PM,-9.4,-13.0,84,30.44,10.0,North,10.4,-,N/A,,Clear,360,2013-02-20 01:15:00
7:54 PM,-11.2,-14.8,84,30.44,10.0,North,9.2,-,N/A,,Mostly Cloudy,10,2013-02-20 01:54:00
8:15 PM,-9.4,-14.8,77,30.43,10.0,North,12.7,-,N/A,,Scattered Clouds,10,2013-02-20 02:15:00
8:35 PM,-11.2,-14.8,84,30.45,10.0,NNW,9.2,-,N/A,,Mostly Cloudy,340,2013-02-20 02:35:00
8:54 PM,-11.2,-14.8,84,30.45,10.0,North,10.4,-,N/A,,Overcast,360,2013-02-20 02:54:00
9:15 PM,-11.2,-14.8,84,30.45,10.0,North,9.2,-,N/A,,Mostly Cloudy,10,2013-02-20 03:15:00
9:55 PM,-13.0,-16.6,84,30.47,10.0,North,9.2,-,N/A,,Scattered Clouds,360,2013-02-20 03:55:00
10:15 PM,-13.0,-16.6,84,30.46,10.0,North,9.2,-,N/A,,Clear,360,2013-02-20 04:15:00
10:34 PM,-13.0,-16.6,84,30.47,10.0,North,9.2,-,N/A,,Clear,360,2013-02-20 04:34:00
10:55 PM,-13.0,-16.6,84,30.48,10.0,North,6.9,-,N/A,,Clear,360,2013-02-20 04:55:00
11:15 PM,-14.8,-18.4,84,30.48,10.0,North,5.8,-,N/A,,Clear,360,2013-02-20 05:15:00
11:35 PM,-13.0,-16.6,84,30.47,10.0,NNE,5.8,-,N/A,,Clear,20,2013-02-20 05:35:00
11:55 PM,-14.8,-18.4,84,30.47,10.0,North,6.9,-,N/A,,Clear,360,2013-02-20 05:55:00